Time,TemperatureF,DewpointF,PressureIn,WindDirection,WindDirectionDegrees,WindSpeedMPH,WindSpeedGustMPH,Humidity,HourlyPrecipIn,Conditions,Clouds,dailyrainin,SolarRadiationWatts/m^2,SoftwareType,DateUTC
2013-02-15 11:49:00,59.0,-99.9,30.06,NNE,26,0.0,-999.0,-999,-99.99,,,0.00,443,weatherlink.com 1.10,2013-02-15 16:49:00,
2013-02-15 12:03:00,59.3,58.0,30.05,NNE,15,1.0,-999.0,95,-99.99,,,0.00,285,weatherlink.com 1.10,2013-02-15 17:03:00,
2013-02-15 12:19:00,59.5,58.0,30.05,NNE,26,4.0,-999.0,95,-99.99,,,0.00,348,weatherlink.com 1.10,2013-02-15 17:19:00,
2013-02-15 12:34:00,60.2,58.0,30.05,NNE,24,0.0,-999.0,93,-99.99,,,0.00,262,weatherlink.com 1.10,2013-02-15 17:34:00,
2013-02-15 12:49:00,60.5,58.0,30.03,East,82,2.0,-999.0,92,-99.99,,,0.00,323,weatherlink.com 1.10,2013-02-15 17:49:00,
2013-02-15 13:04:00,61.0,58.0,30.03,ENE,61,2.0,-999.0,91,-99.99,,,0.00,659,weatherlink.com 1.10,2013-02-15 18:04:00,
2013-02-15 13:19:00,61.8,58.0,30.02,NE,35,0.0,-999.0,88,-99.99,,,0.00,346,weatherlink.com 1.10,2013-02-15 18:19:00,
2013-02-15 13:34:00,62.4,58.0,30.00,NNW,348,0.0,-999.0,85,-99.99,,,0.00,338,weatherlink.com 1.10,2013-02-15 18:34:00,
2013-02-15 13:49:00,62.7,58.0,30.00,WNW,293,0.0,-999.0,84,-99.99,,,0.00,448,weatherlink.com 1.10,2013-02-15 18:49:00,
2013-02-15 14:04:00,63.5,58.0,30.00,West,260,1.0,-999.0,82,-99.99,,,0.00,911,weatherlink.com 1.10,2013-02-15 19:04:00,
2013-02-15 14:20:00,65.6,59.0,29.98,SSW,210,2.0,-999.0,79,-99.99,,,0.00,933,weatherlink.com 1.10,2013-02-15 19:20:00,
2013-02-15 14:34:00,66.4,59.0,29.97,WSW,241,2.0,-999.0,76,-99.99,,,0.00,814,weatherlink.com 1.10,2013-02-15 19:34:00,
2013-02-15 14:49:00,66.9,59.0,29.97,WSW,253,2.0,-999.0,75,-99.99,,,0.00,677,weatherlink.com 1.10,2013-02-15 19:49:00,
2013-02-15 15:04:00,66.8,59.0,29.97,SW,236,0.0,-999.0,75,-99.99,,,0.00,387,weatherlink.com 1.10,2013-02-15 20:04:00,
2013-02-15 15:19:00,67.3,59.0,29.96,SW,223,0.0,-999.0,74,-99.99,,,0.00,784,weatherlink.com 1.10,2013-02-15 20:19:00,
2013-02-15 15:34:00,69.1,60.0,29.95,SSW,209,4.0,-999.0,72,-99.99,,,0.00,705,weatherlink.com 1.10,2013-02-15 20:34:00,
2013-02-15 15:50:00,69.1,59.0,29.96,SW,228,2.0,-999.0,71,-99.99,,,0.00,617,weatherlink.com 1.10,2013-02-15 20:50:00,
2013-02-15 16:04:00,68.6,59.0,29.96,WSW,240,3.0,-999.0,72,-99.99,,,0.00,388,weatherlink.com 1.10,2013-02-15 21:04:00,
2013-02-15 16:19:00,67.9,59.0,29.95,NW,309,0.0,-999.0,73,-99.99,,,0.00,141,weatherlink.com 1.10,2013-02-15 21:19:00,
2013-02-15 16:34:00,69.1,60.0,29.95,WSW,246,2.0,-999.0,72,-99.99,,,0.00,350,weatherlink.com 1.10,2013-02-15 21:34:00,
2013-02-15 16:49:00,68.8,58.0,29.95,NW,319,3.0,-999.0,69,-99.99,,,0.00,295,weatherlink.com 1.10,2013-02-15 21:49:00,
2013-02-15 17:04:00,67.8,58.0,29.95,West,260,0.0,-999.0,70,-99.99,,,0.00,77,weatherlink.com 1.10,2013-02-15 22:04:00,
2013-02-15 17:19:00,68.1,58.0,29.94,West,260,0.0,-999.0,70,-99.99,,,0.00,188,weatherlink.com 1.10,2013-02-15 22:19:00,
2013-02-15 17:34:00,68.3,58.0,29.94,NW,323,0.0,-999.0,69,-99.99,,,0.00,141,weatherlink.com 1.10,2013-02-15 22:34:00,
2013-02-15 17:49:00,67.8,57.0,29.94,WSW,255,0.0,-999.0,69,-99.99,,,0.00,32,weatherlink.com 1.10,2013-02-15 22:49:00,
2013-02-15 18:04:00,66.1,58.0,29.94,WSW,255,0.0,-999.0,75,-99.99,,,0.00,21,weatherlink.com 1.10,2013-02-15 23:04:00,
2013-02-15 18:20:00,64.7,58.0,29.95,WSW,255,0.0,-999.0,79,-99.99,,,0.00,0,weatherlink.com 1.10,2013-02-15 23:20:00,
2013-02-15 18:35:00,62.7,57.0,29.94,WSW,255,0.0,-999.0,82,-99.99,,,0.00,0,weatherlink.com 1.10,2013-02-15 23:35:00,
2013-02-15 18:49:00,61.5,57.0,29.94,WSW,255,0.0,-999.0,85,-99.99,,,0.00,0,weatherlink.com 1.10,2013-02-15 23:49:00,
2013-02-15 19:20:00,59.3,56.0,29.95,WSW,255,0.0,-999.0,90,-99.99,,,0.00,0,weatherlink.com 1.10,2013-02-16 00:20:00,
2013-02-15 19:35:00,58.6,57.0,29.95,WSW,255,0.0,-999.0,93,-99.99,,,0.00,0,weatherlink.com 1.10,2013-02-16 00:35:00,
2013-02-15 19:50:00,58.0,56.0,29.95,WSW,255,0.0,-999.0,94,-99.99,,,0.00,0,weatherlink.com 1.10,2013-02-16 00:50:00,
2013-02-15 20:05:00,57.2,56.0,29.95,WSW,255,0.0,-999.0,95,-99.99,,,0.00,0,weatherlink.com 1.10,2013-02-16 01:05:00,
2013-02-15 20:20:00,57.3,57.0,29.96,WSW,256,0.0,-999.0,97,-99.99,,,0.00,0,weatherlink.com 1.10,2013-02-16 01:20:00,
2013-02-15 20:35:00,57.8,57.0,29.96,NW,307,0.0,-999.0,96,-99.99,,,0.00,0,weatherlink.com 1.10,2013-02-16 01:35:00,
2013-02-15 20:50:00,57.6,56.0,29.96,NW,307,0.0,-999.0,95,-99.99,,,0.00,0,weatherlink.com 1.10,2013-02-16 01:50:00,
2013-02-15 21:05:00,57.5,56.0,29.96,NW,307,0.0,-999.0,93,-99.99,,,0.00,0,weatherlink.com 1.10,2013-02-16 02:05:00,
2013-02-15 21:20:00,57.2,55.0,29.97,NW,307,0.0,-999.0,92,-99.99,,,0.00,0,weatherlink.com 1.10,2013-02-16 02:20:00,
2013-02-15 21:35:00,56.9,55.0,29.97,NW,307,0.0,-999.0,92,-99.99,,,0.00,0,weatherlink.com 1.10,2013-02-16 02:35:00,
2013-02-15 21:50:00,56.6,55.0,29.98,NW,307,0.0,-999.0,94,-99.99,,,0.00,0,weatherlink.com 1.10,2013-02-16 02:50:00,
2013-02-15 22:05:00,56.6,55.0,29.98,NW,307,0.0,-999.0,95,-99.99,,,0.00,0,weatherlink.com 1.10,2013-02-16 03:05:00,
2013-02-15 22:20:00,56.6,54.0,29.98,NW,307,0.0,-999.0,92,-99.99,,,0.00,0,weatherlink.com 1.10,2013-02-16 03:20:00,
2013-02-15 22:35:00,56.7,54.0,29.98,NW,307,0.0,-999.0,91,-99.99,,,0.00,0,weatherlink.com 1.10,2013-02-16 03:35:00,
2013-02-15 22:50:00,56.6,54.0,29.98,NW,307,0.0,-999.0,91,-99.99,,,0.00,0,weatherlink.com 1.10,2013-02-16 03:50:00,
2013-02-15 23:05:00,56.3,54.0,29.97,NW,307,0.0,-999.0,91,-99.99,,,0.00,0,weatherlink.com 1.10,2013-02-16 04:05:00,
2013-02-15 23:20:00,56.0,54.0,29.97,NW,307,0.0,-999.0,92,-99.99,,,0.00,0,weatherlink.com 1.10,2013-02-16 04:20:00,
2013-02-15 23:35:00,55.7,54.0,29.97,NW,307,0.0,-999.0,92,-99.99,,,0.00,0,weatherlink.com 1.10,2013-02-16 04:35:00,
2013-02-15 23:49:00,55.6,53.0,29.97,NW,307,0.0,-999.0,92,-99.99,,,0.00,0,weatherlink.com 1.10,2013-02-16 04:49:00,